Flag for Kazakhstan Weather past 2 weeks in Shymkent, Kazakhstan

Now
30 °F

Ice fog.


Feels Like: 27 °F
Forecast: 33 / 53 °F
Wind: 3 mph from Southeast

Location: Shymkent Airport

Current Time: Feb 28, 2015 at 7:36:38 AM

Latest Report: Feb 28, 2015 at 7:00 AM


Visibility: 2 mi

Pressure: 30.39 "Hg

Humidity: 93%

Dew point: 28 °F

Location of ShymkentLocation

Historic Weather in Shymkent — Graph

°F

Shymkent temperature yesterday

Maximum temperature yesterday: 48 °F (at 2:00 PM)
Minimum temperature yesterday: 36 °F (at 6:30 AM)
Average temperature yesterday: 41 °F

Past Weeks' High & Low Weather Summary

 TemperatureHumidityPressure
High61 °F (Feb 23, 3:30 PM)100% (Feb 13, 6:00 AM)30.45 "Hg (Feb 13, 6:00 AM)
Low28 °F (Feb 18, 4:30 AM)28% (Feb 19, 2:00 PM)29.83 "Hg (Feb 23, 4:00 PM)
Average42 °F81%30.13 "Hg
* Reported Feb 13 6:00 AM — Feb 28 6:30 AM, Shymkent, Weather by CustomWeather, © 2015

Note: Actual official high and low records may vary slightly from our data, if they occured in-between our weather recording intervals... More about our weather records

Advertising

Shymkent weather history for previous 24 hours

 ConditionsComfort  
Time TempWeatherWind HumidityBarometerVisibility
6:30 AM
Sat, Feb 28
30 °FIce fog.3 mph86%30.42 "Hg2 mi
6:00 AM32 °FIce fog.1 mph87%30.42 "Hg3 mi
5:30 AM30 °FClear.1 mph93%30.39 "Hg10 mi
5:00 AM32 °FClear.1 mph87%30.42 "Hg10 mi
4:30 AM32 °FClear.3 mph87%30.42 "Hg10 mi
4:00 AM30 °FClear.3 mph86%30.42 "Hg10 mi
3:30 AM32 °FClear.3 mph80%30.42 "Hg10 mi
3:00 AM34 °FClear.6 mph75%30.42 "Hg10 mi
2:30 AM34 °FClear.3 mph81%30.42 "Hg10 mi
2:00 AM34 °FClear.3 mph81%30.42 "Hg10 mi
1:30 AM34 °FClear.1 mph75%30.42 "Hg10 mi
1:00 AM36 °FClear.3 mph75%30.42 "Hg10 mi
12:30 AM34 °FClear.6 mph75%30.42 "Hg10 mi
12:00 AM37 °FClear.8 mph65%30.42 "Hg10 mi
11:30 PM
Fri, Feb 27
36 °FClear.6 mph70%30.45 "Hg10 mi
11:00 PM37 °FClear.8 mph65%30.45 "Hg10 mi
10:30 PM37 °FClear.8 mph65%30.45 "Hg10 mi
10:00 PM37 °FClear.8 mph65%30.42 "Hg10 mi
9:30 PM39 °FClear.8 mph61%30.42 "Hg10 mi
9:00 PM41 °FClear.6 mph61%30.42 "Hg10 mi
8:30 PM41 °FPassing clouds.3 mph66%30.42 "HgN/A
8:00 PM41 °FPassing clouds.3 mph66%30.42 "HgN/A
7:30 PM41 °FPassing clouds.3 mph66%30.39 "HgN/A
7:00 PM43 °FPartly sunny.6 mph61%30.39 "HgN/A
6:30 PM43 °FPartly sunny.3 mph66%30.39 "HgN/A
6:00 PM45 °FPartly sunny.6 mph57%30.36 "HgN/A
5:30 PM46 °FPartly sunny.3 mph53%30.36 "HgN/A
5:00 PM46 °FPartly sunny.3 mph50%30.36 "HgN/A
4:30 PM46 °FPartly sunny.3 mph53%30.36 "HgN/A
4:00 PM48 °FPartly sunny.6 mph50%30.36 "HgN/A
3:30 PM48 °FPartly sunny.3 mph40%30.36 "HgN/A
3:00 PM46 °FPartly sunny.3 mph53%30.36 "HgN/A
2:30 PM48 °FMore clouds than sun.6 mph58%30.36 "HgN/A
2:00 PM48 °FMore clouds than sun.1 mph58%30.36 "HgN/A
1:30 PM46 °FMore clouds than sun.3 mph62%30.39 "HgN/A
1:00 PM46 °FMore clouds than sun.1 mph62%30.39 "HgN/A
12:30 PM43 °FMore clouds than sun.1 mph66%30.39 "HgN/A
12:00 PM43 °FMore clouds than sun.1 mph71%30.39 "HgN/A
11:30 AM43 °FMore clouds than sun.1 mph71%30.39 "HgN/A
11:00 AM43 °FMostly cloudy.3 mph71%30.39 "Hg5 mi
10:30 AM41 °FMostly cloudy.1 mph76%30.39 "Hg5 mi
9:30 AM37 °FSunny.No wind81%30.36 "Hg10 mi
9:00 AM37 °FSunny.No wind81%30.36 "Hg10 mi
8:30 AM36 °FSunny.1 mph81%30.33 "Hg10 mi
8:00 AM37 °FPassing clouds.3 mph75%30.33 "HgN/A
7:30 AM37 °FClear.3 mph70%30.33 "Hg10 mi
7:00 AM36 °FClear.No wind81%30.33 "Hg10 mi
Weather by CustomWeather, © 2015

See weather overviewHow to use our weather pages